When you browse on this site, cookies collect data to enhance your experience and personalize the content and advertising you see.
Visit our Privacy Policy to learn more. By continuing to use the site, you agree to this use of cookies and data.
  • In Schweiz
  • Länderverzeichnis
  • Für 7 Tage
  • Wassertemperatur
  • Satellitenkarten
  • Wetterkarte
  • Widgets
  • user-avatar
    Anmelden

    Stündliche Wetter Sewan

    Heute, 25 April, Donnerstag

    Zeit Temperatur Niederschläge Wind Luftdruck Luftfeuchtigkeit
    00:00 +5°C° 0.2 mm 1 m/S 645 mmHg 73%
    01:00 +5°C° 0.4 mm 1 m/S 645 mmHg 74%
    02:00 +5°C° 0.4 mm 1 m/S 645 mmHg 75%
    03:00 +4°C° 0.4 mm 1 m/S 645 mmHg 76%
    04:00 +4°C° 0.3 mm 1 m/S 645 mmHg 76%
    05:00 +4°C° 0.3 mm 1 m/S 645 mmHg 76%
    06:00 +4°C° 0.3 mm 1 m/S 646 mmHg 77%
    07:00 +5°C° 0.1 mm 1 m/S 646 mmHg 72%
    08:00 +6°C° 0.1 mm 1 m/S 646 mmHg 67%
    09:00 +7°C° 0.1 mm 1 m/S 646 mmHg 62%
    10:00 +8°C° 0 mm 1 m/S 646 mmHg 58%
    11:00 +9°C° 0 mm 1 m/S 646 mmHg 54%
    12:00 +10°C° 0 mm 1 m/S 646 mmHg 50%
    13:00 +10°C° 0.1 mm 1 m/S 645 mmHg 49%
    14:00 +11°C° 0.1 mm 1 m/S 645 mmHg 48%
    15:00 +11°C° 0.1 mm 1 m/S 645 mmHg 47%
    16:00 +10°C° 0.1 mm 1 m/S 645 mmHg 50%
    17:00 +10°C° 0.1 mm 1 m/S 645 mmHg 53%
    18:00 +9°C° 0.1 mm 1 m/S 644 mmHg 56%
    19:00 +8°C° 0 mm 1 m/S 645 mmHg 60%
    20:00 +6°C° 0 mm 2 m/S 645 mmHg 64%
    21:00 +4°C° 0 mm 2 m/S 645 mmHg 68%
    22:00 +4°C° 0 mm 2 m/S 645 mmHg 69%
    23:00 +3°C° 0 mm 2 m/S 645 mmHg 69%

    Morgen, 26 April, Freitag

    Zeit Temperatur Niederschläge Wind Luftdruck Luftfeuchtigkeit
    00:00 +3°C° 0 mm 2 m/S 645 mmHg 70%
    01:00 +3°C° 0 mm 2 m/S 645 mmHg 70%
    02:00 +2°C° 0 mm 2 m/S 645 mmHg 70%
    03:00 +2°C° 0 mm 2 m/S 645 mmHg 70%
    04:00 +2°C° 0 mm 2 m/S 645 mmHg 69%
    05:00 +2°C° 0 mm 2 m/S 645 mmHg 67%
    06:00 +3°C° 0 mm 2 m/S 645 mmHg 66%
    07:00 +5°C° 0 mm 1 m/S 645 mmHg 60%
    08:00 +7°C° 0 mm 1 m/S 645 mmHg 53%
    09:00 +9°C° 0 mm 1 m/S 645 mmHg 47%
    10:00 +10°C° 0 mm 1 m/S 645 mmHg 44%
    11:00 +11°C° 0 mm 1 m/S 645 mmHg 42%
    12:00 +12°C° 0 mm 2 m/S 645 mmHg 40%
    13:00 +12°C° 0 mm 2 m/S 644 mmHg 40%
    14:00 +12°C° 0 mm 1 m/S 644 mmHg 41%
    15:00 +13°C° 0 mm 1 m/S 644 mmHg 41%
    16:00 +12°C° 0 mm 1 m/S 644 mmHg 44%
    17:00 +11°C° 0 mm 1 m/S 643 mmHg 47%
    18:00 +11°C° 0 mm 1 m/S 643 mmHg 49%
    19:00 +9°C° 0 mm 1 m/S 643 mmHg 54%
    20:00 +8°C° 0 mm 1 m/S 643 mmHg 59%
    21:00 +7°C° 0 mm 1 m/S 643 mmHg 63%
    22:00 +6°C° 0 mm 1 m/S 643 mmHg 66%
    23:00 +6°C° 0 mm 1 m/S 643 mmHg 69%

    übermorgen, 27 April, Samstag

    Zeit Temperatur Niederschläge Wind Luftdruck Luftfeuchtigkeit
    00:00 +5°C° 0 mm 1 m/S 643 mmHg 71%
    01:00 +5°C° 0 mm 1 m/S 643 mmHg 72%
    02:00 +5°C° 0 mm 1 m/S 643 mmHg 74%
    03:00 +4°C° 0 mm 1 m/S 643 mmHg 75%
    04:00 +5°C° 0 mm 1 m/S 643 mmHg 73%
    05:00 +5°C° 0 mm 1 m/S 643 mmHg 72%
    06:00 +5°C° 0 mm 1 m/S 643 mmHg 71%
    07:00 +7°C° 0 mm 1 m/S 643 mmHg 62%
    08:00 +8°C° 0 mm 1 m/S 643 mmHg 54%
    09:00 +9°C° 0 mm 2 m/S 643 mmHg 45%
    10:00 +10°C° 0 mm 2 m/S 643 mmHg 43%
    11:00 +12°C° 0 mm 2 m/S 643 mmHg 42%
    12:00 +12°C° 0 mm 3 m/S 643 mmHg 40%
    13:00 +12°C° 0 mm 3 m/S 643 mmHg 39%
    14:00 +13°C° 0 mm 3 m/S 643 mmHg 38%
    15:00 +13°C° 0 mm 3 m/S 642 mmHg 37%
    16:00 +13°C° 0 mm 2 m/S 642 mmHg 39%
    17:00 +12°C° 0 mm 2 m/S 642 mmHg 41%
    18:00 +12°C° 0 mm 1 m/S 641 mmHg 43%
    19:00 +10°C° 0 mm 1 m/S 641 mmHg 43%
    20:00 +9°C° 0 mm 1 m/S 641 mmHg 44%
    21:00 +8°C° 0 mm 1 m/S 641 mmHg 44%
    22:00 +7°C° 0 mm 1 m/S 641 mmHg 44%
    23:00 +7°C° 0 mm 1 m/S 641 mmHg 44%

    28 April, Sonntag

    Zeit Temperatur Niederschläge Wind Luftdruck Luftfeuchtigkeit
    00:00 +6°C° 0 mm 1 m/S 641 mmHg 43%
    01:00 +6°C° 0 mm 1 m/S 641 mmHg 44%
    02:00 +6°C° 0 mm 1 m/S 640 mmHg 45%
    03:00 +6°C° 0 mm 1 m/S 640 mmHg 45%
    04:00 +6°C° 0 mm 1 m/S 640 mmHg 48%
    05:00 +6°C° 0 mm 1 m/S 640 mmHg 50%
    06:00 +6°C° 0 mm 1 m/S 640 mmHg 52%
    07:00 +7°C° 0 mm 2 m/S 641 mmHg 50%
    08:00 +9°C° 0 mm 2 m/S 641 mmHg 47%
    09:00 +11°C° 0 mm 3 m/S 641 mmHg 45%
    10:00 +12°C° 0 mm 3 m/S 641 mmHg 44%
    11:00 +13°C° 0 mm 3 m/S 641 mmHg 44%
    12:00 +14°C° 0 mm 3 m/S 641 mmHg 43%
    13:00 +14°C° 0 mm 3 m/S 640 mmHg 43%
    14:00 +14°C° 0 mm 3 m/S 640 mmHg 44%
    15:00 +16°C° 0 mm 3 m/S 640 mmHg 44%
    16:00 +14°C° 0.1 mm 3 m/S 640 mmHg 46%
    17:00 +14°C° 0.1 mm 2 m/S 640 mmHg 49%
    18:00 +14°C° 0.1 mm 2 m/S 639 mmHg 52%
    19:00 +12°C° 0.1 mm 2 m/S 640 mmHg 53%
    20:00 +11°C° 0.1 mm 1 m/S 640 mmHg 55%
    21:00 +10°C° 0.1 mm 1 m/S 640 mmHg 57%
    22:00 +10°C° 0 mm 1 m/S 640 mmHg 58%
    23:00 +9°C° 0 mm 1 m/S 640 mmHg 59%

    29 April, Montag

    Zeit Temperatur Niederschläge Wind Luftdruck Luftfeuchtigkeit
    00:00 +9°C° 0 mm 1 m/S 640 mmHg 60%
    01:00 +9°C° 0 mm 1 m/S 639 mmHg 61%
    02:00 +8°C° 0 mm 1 m/S 639 mmHg 62%
    03:00 +8°C° 0 mm 1 m/S 639 mmHg 64%
    04:00 +8°C° 0 mm 1 m/S 640 mmHg 65%
    05:00 +8°C° 0 mm 1 m/S 640 mmHg 66%
    06:00 +8°C° 0 mm 1 m/S 640 mmHg 67%
    07:00 +9°C° 0 mm 2 m/S 640 mmHg 64%
    08:00 +12°C° 0 mm 2 m/S 640 mmHg 61%
    09:00 +13°C° 0 mm 3 m/S 641 mmHg 58%
    10:00 +13°C° 0.1 mm 3 m/S 641 mmHg 56%
    11:00 +14°C° 0.1 mm 3 m/S 640 mmHg 54%
    12:00 +16°C° 0.1 mm 3 m/S 640 mmHg 52%
    13:00 +16°C° 0.3 mm 3 m/S 640 mmHg 52%
    14:00 +16°C° 0.3 mm 3 m/S 640 mmHg 53%
    15:00 +16°C° 0.3 mm 3 m/S 639 mmHg 53%
    16:00 +16°C° 0.5 mm 3 m/S 639 mmHg 56%
    17:00 +14°C° 0.5 mm 3 m/S 639 mmHg 59%
    18:00 +14°C° 0.5 mm 2 m/S 639 mmHg 62%
    19:00 +13°C° 0.2 mm 2 m/S 639 mmHg 64%
    20:00 +12°C° 0.2 mm 2 m/S 639 mmHg 66%
    21:00 +10°C° 0.2 mm 2 m/S 639 mmHg 68%
    22:00 +10°C° 0.1 mm 2 m/S 639 mmHg 68%
    23:00 +9°C° 0.1 mm 2 m/S 639 mmHg 68%

    30 April, Dienstag

    Zeit Temperatur Niederschläge Wind Luftdruck Luftfeuchtigkeit
    00:00 +9°C° 0.1 mm 2 m/S 639 mmHg 67%
    01:00 +9°C° 0.1 mm 2 m/S 639 mmHg 68%
    02:00 +8°C° 0.1 mm 2 m/S 639 mmHg 69%
    03:00 +8°C° 0.1 mm 2 m/S 639 mmHg 70%
    04:00 +8°C° 0.2 mm 2 m/S 639 mmHg 71%
    05:00 +9°C° 0.2 mm 1 m/S 639 mmHg 71%
    06:00 +9°C° 0.2 mm 1 m/S 640 mmHg 72%
    07:00 +10°C° 0 mm 2 m/S 640 mmHg 68%
    08:00 +12°C° 0 mm 2 m/S 640 mmHg 65%
    09:00 +12°C° 0 mm 3 m/S 641 mmHg 62%
    10:00 +13°C° 0 mm 3 m/S 641 mmHg 57%
    11:00 +14°C° 0 mm 3 m/S 641 mmHg 53%
    12:00 +17°C° 0 mm 3 m/S 641 mmHg 49%
    13:00 +17°C° 0 mm 3 m/S 640 mmHg 47%
    14:00 +18°C° 0 mm 3 m/S 640 mmHg 45%
    15:00 +18°C° 0 mm 3 m/S 640 mmHg 43%
    16:00 +18°C° 0.1 mm 3 m/S 640 mmHg 45%
    17:00 +17°C° 0.1 mm 2 m/S 640 mmHg 46%
    18:00 +16°C° 0.1 mm 2 m/S 640 mmHg 47%
    19:00 +15°C° 0.1 mm 2 m/S 640 mmHg 47%
    20:00 +14°C° 0.1 mm 2 m/S 640 mmHg 47%
    21:00 +12°C° 0.1 mm 2 m/S 640 mmHg 47%
    22:00 +12°C° 0.1 mm 2 m/S 640 mmHg 47%
    23:00 +11°C° 0.1 mm 1 m/S 640 mmHg 46%
    Mehr zeigen